Regional Weather Roundup
Issued by NWS

Home | Current Version | Previous Version | Graphics & Text | Print | Product List | Glossary On
Versions: 1 2 3 4 5 6 7 8 9 10 11 12 13 14 15 16 17 18 19 20 21 22 23 24 25 26 27 28 29 30 31 32 33 34 35 36 37 38 39 40 41 42 43 44 45 46 47 48 49 50
000
ASUS43 KLOT 222108
RWRIL

ILLINOIS REGIONAL WEATHER ROUNDUP
NATIONAL WEATHER SERVICE CHICAGO/ROMEOVILLE IL
400 PM CDT FRI JUL 22 2016

NOTE: "FAIR" INDICATES FEW OR NO CLOUDS BELOW 12,000 FEET WITH NO
SIGNIFICANT WEATHER AND/OR OBSTRUCTIONS TO VISIBILITY.

* THESE STATIONS ARE NOT UNDER NWS QUALITY CONTROL. THEY ALSO MAY NOT
  REPORT WEATHER SUCH AS PRECIPITATION OR FOG.

ILZ001-002-007-009-015-016-024-222200-
NORTHWEST ILLINOIS

CITY           SKY/WX    TMP DP  RH WIND       PRES   REMARKS
MOLINE         MOSUNNY   89  74  60 SW3       29.99F HX  98
STERLING*      SUNNY     87  76  69 SW6       30.01F HX  97
SAVANNA*       CLOUDY    86  75  69 S3        30.00F HX  95
$$

ILZ003-004-008-010-011-017-018-222200-
NORTH CENTRAL ILLINOIS

CITY           SKY/WX    TMP DP  RH WIND       PRES   REMARKS
ROCKFORD       MOSUNNY   89  75  63 VRB3      30.01F HX  99
FREEPORT*      SUNNY     85  76  72 SW5       30.03F HX  95
ROCHELLE*      SUNNY     85  75  72 CALM      30.02F HX  94
DE KALB*       SUNNY     85  75  70 NW6       30.02F HX  93
$$

ILZ005-006-012>014-019>023-222200-
NORTHEAST ILLINOIS

CITY           SKY/WX    TMP DP  RH WIND       PRES   REMARKS
CHICAGO-OHARE  MOSUNNY   88  74  63 W12       29.98F HX  96
CHICAGO-MIDWAY MOSUNNY   89  72  56 NW9       29.98F HX  96
AURORA         SUNNY     87  76  69 W8        30.01F HX  97
LANSING*       MOSUNNY   87  71  59 W8        29.99F HX  92
JOLIET*        SUNNY     87  75  68 NW5       30.00F HX  97
WAUKEGAN       MOSUNNY   91  73  55 VRB5      29.98F HX  99
DUPAGE AIRPORT MOSUNNY   87  74  64 NW7       30.00F HX  95
WHEELING       MOSUNNY   89  73  59 VRB7      29.99F HX  97
MORRIS*        SUNNY     85  75  71 NW6       29.99F HX  93
ROMEOVILLE*    SUNNY     85  72  64 NW7       30.00F HX  92
NORTHERLY ISL    N/A     83  69  62 E2          N/A  HX  86
$$

LMZ740>746-222200-
SOUTHERN LAKE MICHIGAN

STATION/POSITION SKY/WX   TEMP    WIND        PRES    VSBY  WAVE
                          AIR SEA DIR/SP/G                  HT/PER
                          (F)     (DEG/KT/KT) (MB)    (MI)  (FT/S)
SOUTHERN BUOY              74 73  200/  6/  6 1015.0F         1
WILMETTE HARBOR            79 71  130/  4/  6   N/A           0
HARRISON CRIB              83      50/  4/  4   N/A
BURNHAM HARBOR             81      40/  2/ 12   N/A
CALUMET HARBOR             87     270/  4/ 10 1015.3F
BURNS HARBOR               80     350/  2/  6 1016.6F
MICHIGAN CITY              80     230/  1/  1   N/A
MICHIGAN CITY 6N           81 77   CALM  /  2   N/A           1
ST. JOSEPH                 76 74  160/  2/  4 1015.5F         1
$$

ILZ025>027-034>036-040-047-049-050-058-095>099-222200-
WEST-CENTRAL ILLINOIS

CITY           SKY/WX    TMP DP  RH WIND       PRES   REMARKS
QUINCY         MOSUNNY   89  74  60 E5        30.01F HX  98
GALESBURG*     PTSUNNY   87  75  67 S5        30.01F HX  96
MACOMB*        PTSUNNY   87  77  72 SE6       30.03F HX  98
JACKSONVILLE*  MOSUNNY   85  73  67 CALM      30.02F HX  91
PITTSFIELD*    SUNNY     86  77  75 SE3       30.03F HX  97
$$

ILZ028>032-037-038-041>044-048-051>054-059>061-222200-
CENTRAL ILLINOIS

CITY           SKY/WX    TMP DP  RH WIND       PRES   REMARKS
PONTIAC        SUNNY     85  76  74 W3        30.02F HX  95
BLOOMINGTON    SUNNY     85  74  69 S5        30.04F HX  92
DECATUR        PTSUNNY   87  72  60 E5        30.03S HX  93
PEORIA         NOT AVBL
LACON*         MOSUNNY   85  73  66 W5        30.00F HX  92
LINCOLN*       SUNNY     87  75  69 SE3       30.02F HX  96
SPRINGFIELD    MOSUNNY   90  71  53 NE3       30.02F HX  96
TAYLORVILLE    MOSUNNY   84  73  69 CALM      30.03F HX  90
$$

ILZ033-039-045-046-055>057-062-063-222200-
EAST-CENTRAL ILLINOIS

CITY           SKY/WX    TMP DP  RH WIND       PRES   REMARKS
CHAMPAIGN      CLOUDY    86  73  65 VRB5      30.03F HX  93
MATTOON        PTSUNNY   86  71  60 NE6       30.01F HX  91
PARIS*         PTSUNNY   87  73  61 CALM      30.03F HX  94
$$

ILZ079-100>102-222200-
SOUTHWEST ILLINOIS

CITY           SKY/WX    TMP DP  RH WIND       PRES   REMARKS
BELLEVILLE     CLOUDY    85  74  70 CALM      30.01F HX  92
CAHOKIA*       PTSUNNY   88  71  57 CALM      30.02F HX  94
SPARTA*        PTSUNNY   83  72  70 CALM      30.04S HX  88
$$

ILZ064>066-069>071-074>076-080>082-084>086-088>090-092>094-222200-
SOUTH-CENTRAL ILLINOIS

CITY           SKY/WX    TMP DP  RH WIND       PRES   REMARKS
CARBONDALE     CLOUDY    84  76  76 NW6       30.02F HX  93
CAIRO*         CLOUDY    82  78  88 CALM      30.01F HX  90
EFFINGHAM*     PTSUNNY   86  74  67 N5        30.03F HX  94
MARION         PTSUNNY   86  79  79 W9        30.02F HX  99
MT. VERNON     MOSUNNY   88  72  58 N5        30.02F HX  94
CENTRALIA*     CLOUDY    86  75  69 N3        30.02S HX  94
SALEM*         PTSUNNY   85  72  66 CALM      30.02F HX  90
METROPOLIS*    CLOUDY    82  76  81 S3        30.01F HX  88
$$

ILZ067-068-072-073-078-083-087-091-222200-
SOUTHEAST ILLINOIS

CITY           SKY/WX    TMP DP  RH WIND       PRES   REMARKS
LAWRENCEVILLE  MOSUNNY   83  76  79 S5        30.02F HX  91
FLORA*         MOSUNNY   85  75  70 CALM      30.02F HX  94
FAIRFIELD*     PTSUNNY   83  77  81 NE3       30.01F HX  92
HARRISBURG*    CLOUDY    85  79  82 CALM      30.02S HX  96
ROBINSON*      MOSUNNY   86  76  70 SW3       30.02F HX  96
CARMI*         CLOUDY    85  78  81 CALM      30.00F HX  97
$$

ABBREVIATIONS USED IN REMARKS
   TC - TEMPERATURE IN CELSIUS
  WCI - WIND CHILL INDEX
   HX - HEAT INDEX
  VSB - VISIBILITY
$$





USA.gov is the U.S. government's official web portal to all federal, state and local government web resources and services.